Location: Unspecified
(0.0000°N, 0.0000°E)
Time: 07:59:50
(UTC+00:00)

Vanguard 2 Rocket - Visible Passes

Search period start: 08 February 2023 00:00
Search period end: 18 February 2023 00:00
Orbit: 556 x 3318 km, 32.9° (Epoch: 07 February)

Date Brightness Start Highest point End Pass type
(mag) Time Alt. Az. Time Alt. Az. Time Alt. Az.
08 Feb 10.6 00:32:55 10° SSW 00:47:47 25° SSE 01:01:37 10° ESE visible
08 Feb 9.7 02:50:18 10° SW 03:09:15 50° SSE 03:22:19 10° E visible
08 Feb 8.7 05:09:26 10° WSW 05:26:39 71° NW 05:36:29 10° NE visible
08 Feb 9.8 18:51:22 10° WSW 18:58:42 29° SSW 19:10:09 10° SSE visible
08 Feb 10.7 21:10:37 10° SW 21:18:55 17° S 21:29:15 10° SSE visible
08 Feb 10.8 23:30:24 10° SSW 23:43:01 20° SSE 23:56:11 10° SE visible
09 Feb 10.1 01:47:28 10° SW 02:05:45 39° SSE 02:20:09 10° E visible
09 Feb 8.9 04:05:31 10° SW 04:24:43 86° SE 04:36:19 10° ENE visible
09 Feb 10.5 20:08:01 10° SW 20:15:16 18° S 20:24:50 10° SSE visible
09 Feb 10.8 22:28:05 10° SSW 22:38:11 17° S 22:49:38 10° SE visible
10 Feb 10.4 00:45:02 10° SSW 01:01:44 31° SSE 01:16:49 10° E visible
10 Feb 9.3 03:02:06 10° SW 03:22:05 67° SSE 03:35:31 10° ENE visible
10 Feb 8.9 05:22:28 10° WSW 05:38:46 50° NW 05:48:32 10° NE visible
10 Feb 10.2 19:05:57 10° WSW 19:12:23 20° SSW 19:21:23 10° SSE visible
10 Feb 10.8 21:25:53 10° SSW 21:33:37 15° S 21:42:49 10° SE visible
10 Feb 10.6 23:42:59 10° SSW 00:06:58 18° SE 00:12:01 10° ESE visible
11 Feb 9.7 01:59:12 10° SW 02:18:50 52° SSE 02:33:53 10° ENE visible
11 Feb 8.9 04:19:21 13° WSW 04:36:58 72° NW 04:48:40 10° NE visible
11 Feb 10.7 20:23:42 10° SSW 20:29:38 14° S 20:36:50 10° SSE visible
11 Feb 10.7 22:41:18 10° SSW 22:52:47 20° SSE 22:56:44 19° SSE visible
12 Feb 10.2 00:56:50 10° SW 01:19:49 37° SE 01:31:14 10° E visible
12 Feb 9.1 03:25:48 43° SW 03:34:32 87° SE 03:48:10 10° NE visible
12 Feb 9.3 05:36:15 10° W 05:50:51 35° NW 06:00:15 10° NNE visible
12 Feb 10.5 19:21:31 10° SW 19:26:23 14° S 19:32:23 10° SSE visible
12 Feb 10.7 21:39:59 10° SSW 21:48:19 16° SSE 21:57:29 11° SE visible
12 Feb 10.5 23:54:58 10° SSW 00:25:13 14° ESE 00:27:16 10° E visible
13 Feb 9.4 02:31:08 69° SSE 02:31:29 69° SE 02:46:58 10° ENE visible
13 Feb 9.1 04:37:04 24° WSW 04:49:02 52° NW 05:00:39 10° NE visible
13 Feb 10.7 20:39:02 10° SSW 20:44:11 12° S 20:50:10 10° SSE visible
13 Feb 10.5 22:53:36 10° SSW 23:04:16 24° SSE 23:04:16 24° SSE visible
14 Feb 10.1 01:08:34 10° SW 01:35:52 38° E 01:44:53 10° ENE visible
14 Feb 9.1 03:41:45 56° W 03:46:42 72° NW 04:00:26 10° NE visible
14 Feb 9.6 05:51:02 10° W 06:03:10 25° NW 06:11:39 10° NNE visible
14 Feb 10.6 19:38:36 10° S 19:40:38 10° S 19:42:50 10° S visible
14 Feb 10.6 21:52:45 10° SSW 22:02:42 18° SSE 22:05:45 18° SSE visible
15 Feb 10.6 00:06:43 10° SW 00:40:12 13° E 00:41:41 10° E visible
15 Feb 9.2 02:46:02 76° ENE 02:46:02 76° ENE 02:59:33 10° NE visible
15 Feb 9.4 04:51:53 24° W 05:01:09 38° NW 05:12:21 10° NNE visible
15 Feb 10.6 20:52:38 10° S 20:58:41 13° SSE 21:05:46 10° SE visible
15 Feb 10.4 23:05:27 10° SSW 23:13:01 25° S 23:13:01 25° S visible
16 Feb 10.0 01:50:02 38° ENE 01:50:02 38° ENE 01:57:53 10° ENE visible
16 Feb 9.3 03:55:51 51° WNW 03:58:46 54° NW 04:12:21 10° NE visible
16 Feb 10.4 22:04:45 10° SSW 22:14:48 23° SSE 22:14:48 23° SSE visible
17 Feb 10.8 00:18:25 10° SW 00:53:46 14° ENE 00:55:16 10° ENE visible
17 Feb 9.3 02:59:34 62° NNE 02:59:34 62° NNE 03:11:43 10° NE visible
17 Feb 9.7 05:05:21 20° WNW 05:13:33 27° NW 05:23:50 10° NNE visible
17 Feb 10.5 21:04:47 10° SSW 21:12:49 16° SSE 21:16:42 15° SE visible
